Regional Weather Roundup
Issued by NWS Little Rock, AR

Home | Current Version | Previous Version | Graphics & Text | Print | Product List | Glossary On
Versions: 1 2 3 4 5 6 7 8 9 10 11 12 13 14 15 16 17 18 19 20 21 22 23 24 25 26 27 28 29 30 31 32
000
ASUS44 KLZK 241305
RWRLZK

WEATHER ROUNDUP FOR ARKANSAS
NATIONAL WEATHER SERVICE LITTLE ROCK AR
700 AM CST TUE JAN 24 2017

NOTE: "FAIR" INDICATES FEW OR NO CLOUDS BELOW 12,000 FEET WITH NO
SIGNIFICANT WEATHER AND/OR OBSTRUCTIONS TO VISIBILITY.

ARZ001-003-010-029-241400-
NORTHWEST ARKANSAS

CITY           SKY/WX    TMP DP  RH WIND       PRES   REMARKS
FAYETTEVILLE   CLOUDY    46  34  62 SE3       29.71S
FORT SMITH     MOCLDY    40  36  86 E9        29.75F
HARRISON       CLOUDY    32  31  96 SE12      29.77F WCI  23
BENTONVILLE    CLEAR    N/A N/A N/A SE10      29.70S
ROGERS         CLEAR     41  35  79 SE10      29.71S
SILOAM SPGS    CLEAR     41  30  65 SE8       29.68F
HIGHFILL       CLEAR     41  33  73 SE9       29.69S
SPRINGDALE     CLEAR     45  34  65 SE8       29.73R
$$

ARZ004-005-016-241400-
NORTH CENTRAL ARKANSAS

CITY           SKY/WX    TMP DP  RH WIND       PRES   REMARKS
BATESVILLE     CLEAR     30  28  93 CALM      29.89R
FLIPPIN        PTCLDY    30  25  80 CALM      29.80F
MTN HOME       CLOUDY    36  33  89 SE7       29.81F
$$

ARZ040-041-241400-
WEST CENTRAL ARKANSAS

CITY           SKY/WX    TMP DP  RH WIND       PRES   REMARKS
MENA           CLEAR     34  34 100 CALM      29.80R
MOUNT IDA      CLEAR     31  30  96 CALM      29.80R
$$

ARZ009-017-025-026-028-241400-
NORTHEAST ARKANSAS

CITY           SKY/WX    TMP DP  RH WIND       PRES   REMARKS
CORNING        FAIR      34  34 100 E3        29.92R
JONESBORO      CLEAR     35  34  96 E5        29.91R WCI  31
NEWPORT        CLEAR     37  36  96 E7        29.90S
WALNUT RIDGE   CLEAR     34  30  86 NE5       29.90S WCI  30
BLYTHEVILLE    MOCLDY    32  31  96 SE5       29.93R FOG     WCI  27
$$

ARZ022-023-033-042-044-241400-
CENTRAL ARKANSAS

CITY           SKY/WX    TMP DP  RH WIND       PRES   REMARKS
LITTLE ROCK    PTCLDY    34  34 100 CALM      29.87R
N LITTLE ROCK    N/A     40  38  93 SE6       29.88R
JACKSONVILLE   CLEAR     33  32  99 CALM      29.86R FOG
SEARCY         CLEAR     34  34 100 CALM      29.89F
HOT SPRINGS    CLEAR     41  38  89 E8        29.84R
RUSSELLVILLE   CLOUDY    41  36  82 E5        29.82R
CLINTON        FAIR      28  28 100 CALM      29.86S FOG
$$

ARZ036-241400-
EAST ARKANSAS

CITY           SKY/WX    TMP DP  RH WIND       PRES   REMARKS
WEST MEMPHIS   CLEAR     35  35 100 SE6       29.91R WCI  30
$$

ARZ050-053-066-070-073-241400-
SOUTHWEST ARKANSAS

CITY           SKY/WX    TMP DP  RH WIND       PRES   REMARKS
ARKADELPHIA    FAIR      37  36  96 CALM      29.86S
CAMDEN         CLEAR     37  36  93 CALM      29.87R
TEXARKANA      PTCLDY    46  39  76 SE8       29.79F
EL DORADO        N/A    N/A N/A N/A MISG      29.86R
DE QUEEN       CLEAR     43  38  82 E6        29.78S
$$

ARZ056-057-069-241400-
SOUTHEAST ARKANSAS

CITY           SKY/WX    TMP DP  RH WIND       PRES   REMARKS
PINE BLUFF     CLEAR     39  39 100 E5        29.88R
STUTTGART      CLEAR     41  34  75 SE7       29.89S
MONTICELLO     PTCLDY    39  37  92 SE5       29.88S

$$






USA.gov is the U.S. government's official web portal to all federal, state and local government web resources and services.